Hourly Data Report for May 06, 2021

ATIKOKAN (AUT)
ONTARIO
Current Station Operator: ECCC - MSC

48°45'40.000" N
91°37'41.000" W
389.30 m
6020LPQ
71747
WCH

Download Data

Hourly Data (May 2021)
Hourly Data Report for May 6, 2021
TIME
LST
Temp Definition
°C
Dew Point Definition
°C
Rel Hum Definition
%
Precip. Amount Definition
mm

Wind Dir Definition
10's deg

Wind Spd Definition
km/h
Visibility Definition
km
Stn Press Definition
kPa
Hmdx Definition


Wind Chill Definition


Weather Definition


00:00 -1.1 -1.5 97 0.0   0   97.40     LegendNANA
01:00 -0.5 -1.2 95 0.0   0   97.38     LegendNANA
02:00 -2.2 -2.9 95 0.0   0   97.33     LegendNANA
03:00 -2.9 -3.4 96 0.0 0 1   97.31   -3 LegendNANA
04:00 -2.6 -3.1 97 0.0   0   97.29     LegendNANA
05:00 -2.1 -2.9 94 0.0 27 4   97.33   -4 LegendNANA
06:00 0.8 -2.7 77 0.0 31 6   97.38     LegendNANA
07:00 3.6 -3.0 62 0.0 32 10   97.41     LegendNANA
08:00 5.6 -4.2 49 0.0 33 9   97.42     LegendNANA
09:00 6.3 -5.3 43 0.0 32 10   97.36     LegendNANA
10:00 6.9 -3.0 49 0.0 33 10   97.31     LegendNANA
11:00 6.9 -5.0 42 0.0 31 8   97.22     LegendNANA
12:00 8.1 -4.6 40 0.0 27 9   97.11     LegendNANA
13:00 8.4 -3.7 42 0.0 32 7   97.03     LegendNANA
14:00 9.0 -3.1 42 0.0 28 10   96.95     LegendNANA
15:00 8.6 -2.4 46 0.0 1 6   96.91     LegendNANA
16:00 3.7 1.2 84 0.0 35 16   97.03     LegendNANA
17:00 3.3 2.0 91 1.5 32 6   97.03     LegendNANA
18:00 4.3 2.3 86 0.4 2 7   97.00     LegendNANA
19:00 3.1 2.1 93 0.0 34 2   97.04     LegendNANA
20:00 1.8 0.9 93 0.0 31 4   97.07     LegendNANA
21:00 0.5 -0.7 92 0.0 33 3   97.10     LegendNANA
22:00 1.3 -0.2 90 0.0 34 5   97.13     LegendNANA
23:00 2.1 -1.4 77 0.0 34 5   97.13     LegendNANA

Notes on Data Quality.

Legend

  • E = Estimated
  • M = Missing
  • NA = Not Available*
  • [empty] = Indicates an unobserved value
Date modified: